Location: Rostock
(54.0884°N, 12.1234°E)
Time: 03:58:04
(UTC+01:00)

ISS - Pass Details

Date: 10 February 2018
Orbit: 402 x 407 km, 51.6° (Epoch: 23 February)

Event Time Altitude Azimuth Distance (km) Brightness Sun altitude
Rises 18:39:56 0° 277° (W) 2,322 1.8 -13.5°
Reaches altitude 10° 18:42:25 10° 258° (WSW) 1,459 0.4 -13.9°
Maximum altitude 18:44:45 18° 212° (SSW) 1,056 -1.3 -14.2°
Drops below altitude 10° 18:47:06 10° 166° (SSE) 1,455 -1.1 -14.6°
Enters shadow 18:48:13 - 155° (SSE) 1,821 -0.7 -14.7°
